Figari Sud-Corse Airport

Airport
ICAO code: 
LFKF
IATA Code: 
FSC
Summary
ICAO Region: 
EUR
Territory: 
Location: 
, Corse
Serving: 
Figari
Elevation: 
87 ft
Coordinates: 
Aerial View: 
41° 30' 2.005" N, 9° 5' 51.997" E
Metar
Observation
LFKF 210430Z AUTO VRB02KT 9999 OVC062 05/04 Q1017 NOSIG
Station
Figari
Date/Time
2022-01-21 04:30:00
Wind speed
02 kts
Lowest cloud amount
overcast
Temperature
5°C
Dew point
4°C
Humidity
93%
QNH
1017 hPa
Weather condition
n/a

Description

International airport serving Ajaccio south and central Corsica.

Climatology

Dry-summer subtropical ”Mediterranean" climate (Köppen climate classification Csa) - characterized by hot, dry summers and mild winters. During the summer, subtropical high pressure cells dominate, making rainfall unlikely except for the occasional thunderstorm. In the winter, periodic storms bring rain (snow at higher elevations).

Runways

Designator Length Width Surface Rops
5/23 2480 45 ASP Yes/Yes
Airport map: 
Aerial View: 

SKYbrary Partners:

Safety knowledge contributed by: